Location: Cz?stochówka
(50.8142°N, 19.0915°E)
Time: 14:00:41
(UTC+00:00)

Cosmos 921 Rocket - Visible Passes

Search period start: 19 April 2026 00:00
Search period end: 29 April 2026 00:00
Orbit: 563 x 620 km, 75.8° (Epoch: 19 April)

Date Brightness Start Highest point End Pass type
(mag) Time Alt. Az. Time Alt. Az. Time Alt. Az.
19 Apr 3.9 19:58:48 10° N 20:02:56 37° ENE 20:03:59 32° E visible
19 Apr 4.5 21:37:05 10° NW 21:40:34 28° W 21:40:34 28° W visible
20 Apr 5.4 18:31:47 10° NNE 18:32:31 10° NE 18:33:16 10° NE visible
20 Apr 3.3 20:07:19 10° NNW 20:11:41 54° ENE 20:12:40 43° ESE visible
20 Apr 5.0 21:46:11 10° NW 21:49:15 19° W 21:49:15 19° W visible
21 Apr 5.2 18:39:09 10° NNE 18:41:31 14° NE 18:43:52 10° E visible
21 Apr 2.9 20:15:55 10° NNW 20:20:22 82° ENE 20:21:22 52° SSE visible
21 Apr 5.4 21:55:44 10° WNW 21:57:44 13° W 21:57:57 13° W visible
22 Apr 4.8 18:47:15 10° N 18:50:26 19° NE 18:53:31 10° E visible
22 Apr 3.2 20:24:36 10° NNW 20:28:59 66° WSW 20:30:06 46° S visible
23 Apr 4.4 18:55:34 10° N 18:59:18 26° NE 19:02:16 13° ESE visible
23 Apr 3.8 20:33:22 10° NNW 20:37:33 43° WSW 20:38:51 33° SSW visible
24 Apr 3.8 19:04:00 10° N 19:08:06 37° ENE 19:11:03 16° ESE visible
24 Apr 4.5 20:42:17 10° NW 20:46:03 28° W 20:47:38 22° SW visible
25 Apr 3.3 19:12:31 10° NNW 19:16:51 54° ENE 19:19:51 18° SE visible
25 Apr 5.1 20:51:23 10° NW 20:54:30 19° W 20:56:27 15° SW visible
26 Apr 3.0 19:21:06 10° NNW 19:25:31 82° ENE 19:28:42 18° SSE visible
26 Apr 5.6 21:00:58 10° WNW 21:02:54 13° W 21:04:48 10° WSW visible
27 Apr 3.3 19:29:47 10° NNW 19:34:08 66° WSW 19:37:34 15° S visible
28 Apr 4.0 19:38:34 10° NNW 19:42:42 43° WSW 19:46:29 11° S visible
